Weather Roundup
Issued by NWS

Home | Current Version | Previous Version | Graphics & Text | Print | Product List | Glossary Off
Versions: 1 2 3 4 5 6 7 8 9 10 11 12 13 14 15 16 17 18 19 20 21 22 23 24 25 26 27 28 29 30 31 32 33 34 35 36 37 38 39 40 41 42 43 44 45 46 47 48 49 50

000
NZUS93 KARX 062159
HRRWXR

CURRENT HOURLY OBSERVATIONS ACROSS
MUCH OF THE UPPER MISSISSIPPI VALLEY
NATIONAL WEATHER SERVICE LA CROSSE WI
500 PM CDT WED MAY 06 2015


...SOUTHEAST MINNESOTA...


CITY           SKY/WX    TMP DP  RH WIND       PRES   REMARKS
ROCHESTER      TSTM      66  61  84 S26G56    29.95R SQUALL  VSB 1
ROCHESTER/MAYO CLOUDY    72  59  63 SE13G20   29.92F
WINONA         PTSUNNY   77  57  50 SE17      29.93F
AUSTIN         CLOUDY    70  63  78 S12G17    29.91F
ALBERT LEA     CLOUDY    70  63  78 SE20      29.88F
DODGE CENTER   CLOUDY    64  63  94 S14       29.93R THUNDER
PRESTON        CLOUDY    72  59  62 SE14G22   29.93F
OWATONNA       CLOUDY    70  61  73 SE17G26   29.89S
FARIBAULT      CLOUDY    72  63  73 SE18G35   29.89R
$$

...ELSEWHERE IN MINNESOTA...


CITY           SKY/WX    TMP DP  RH WIND       PRES   REMARKS
MINNEAPOLIS    CLOUDY    75  57  53 SE22G33   29.87F
INTNL FALLS    CLOUDY    67  56  67 S8        29.92F
DULUTH         CLOUDY    60  52  74 E16       29.98F
RED WING       PTSUNNY   73  55  53 SE15      29.90S
REDWOOD FALLS  MOSUNNY   76  60  57 S26G35    29.76F
MANKATO        CLOUDY    75  63  64 SE23G30   29.84F
WORTHINGTON    CLOUDY    70  57  64 S31G39    29.81R
FAIRMONT       MOSUNNY   73  46  38 S25G31    29.82S
$$

...SOUTHWEST WISCONSIN...


CITY           SKY/WX    TMP DP  RH WIND       PRES   REMARKS
LA CROSSE      PTSUNNY   80  56  43 SE14G23   29.95F
PRAIRIE DU CHI MOSUNNY   77  56  48 SE10G18   29.96F
BOSCOBEL       MOSUNNY   81  59  47 SE9       29.98F
LONE ROCK      NOT AVBL
PLATTEVILLE    MOSUNNY   78  60  52 SE18      30.01F
FORT MC COY    PTSUNNY   78  53  41 S14G20    30.00F
VIROQUA        FAIR      76  58  54 SE16      30.00F
WIS DELLS      NOT AVBL
$$

...ELSEWHERE IN WISCONSIN...


CITY           SKY/WX    TMP DP  RH WIND       PRES   REMARKS
MILWAUKEE      PTSUNNY   58  52  80 E5        30.12F
MADISON        PTSUNNY   76  62  62 SE10      30.04F
GREEN BAY      MOSUNNY   69  57  65 SE8       30.11F
EAU CLAIRE     NOT AVBL
BLACK RVR FLS  FAIR      77  55  45 E10       29.99F
MEDFORD        MOSUNNY   71  58  63 SE10G16   30.05F
WAUSAU         MOSUNNY   72  58  61 E13       30.04F
WIS RAPIDS     MOSUNNY   77  55  46 S13       30.04F
MARSHFIELD     PTSUNNY   76  59  55 SE16      30.02F
RICE LAKE      PTSUNNY   74  56  53 SE14G20   29.98F
$$

...NORTHEAST IOWA...


CITY           SKY/WX    TMP DP  RH WIND       PRES   REMARKS
DECORAH        PTSUNNY   73  59  60 SE14G23   29.95S
MASON CITY     CLOUDY    73  60  63 S17G28    29.90S
CHARLES CITY   CLOUDY    70  66  88 SE16G26   29.93F
OELWEIN        CLOUDY    68  63  83 S15       29.98S
$$

...ELSEWHERE IN IOWA...


CITY           SKY/WX    TMP DP  RH WIND       PRES   REMARKS
DES MOINES     CLOUDY    73  57  57 S15G25    29.90F
IOWA CITY      LGT RAIN  69  61  75 SW16G26   30.01R
FORT DODGE     PTSUNNY   75  59  57 S20G26    29.86F
$$

...NORTHERN ILLINOIS...


CITY           SKY/WX    TMP DP  RH WIND       PRES   REMARKS
CHICAGO-OHARE  PTSUNNY   69  56  62 E10       30.08F
CHICAGO-MIDWAY PTSUNNY   71  58  63 NE10      30.08F HAZE
MOLINE         PTSUNNY   82  53  36 S16G22    29.98F
ROCKFORD       MOSUNNY   81  54  39 S16       30.05F
PEORIA         PTSUNNY   83  52  34 S13       30.02F
$$

NOTE: "FAIR" INDICATES FEW OR NO CLOUDS BELOW 12,000 FEET WITH NO
SIGNIFICANT WEATHER AND/OR OBSTRUCTIONS TO VISIBILITY. WIND
SPEEDS ARE IN MILES-PER-HOUR.



USA.gov is the U.S. government's official web portal to all federal, state and local government web resources and services.